sat.trackr.live / text

‹ back to catalog

STARLINK-37006

NORAD 68187 · 2026-050W

PAYLOAD ACTIVE UNKNOWN

§ Identity

Operator
Country
US
Launch date
2026-03-14
Launch site
AFETR
Launch vehicle
Mass (kg)
RCS (m²)

Purposes: comms

External: N2YO · Heavens-Above · Gunter

§ Orbital elements

Epoch: 2026-09-19T21:51:12.442752Z

Period
93.85 min
Inclination
53.1591°
Eccentricity
0.0001062
Mean motion
15.34400612 rev/d
Perigee alt
462.0 km
Apogee alt
463.4 km
Semi-major
6,840.8 km
B*
5.8372e-4
RAAN
80.7541°
Arg perigee
52.8905°
Mean anomaly
307.2195°
Rev number
3,047

§ Raw data

STARLINK-370061 68187U 26050W   26262.91056068  .00019397  00000+0  58372-3 0  99922 68187  53.1591  80.7541 0001062  52.8905 307.2195 15.34400612 30476

JSON: /api/v1/satellites/68187 · /tle

For live sub-satellite position, see the globe view (requires WebGL).

§ Visibility from observer

Set your observer location to see the next 7 days of passes ≥ 10°. The values pass through the URL so the page stays shareable.

No JS? Fill the form by hand. The geolocation button needs JavaScript.